Regional Weather Roundup
Issued by NWS

Home | Current Version | Previous Version | Graphics & Text | Print | Product List | Glossary On
Versions: 1 2 3 4 5 6 7 8 9 10 11 12 13 14 15 16 17 18 19 20 21 22 23 24 25 26 27 28 29 30 31 32 33 34 35 36 37 38 39 40 41 42 43 44 45 46 47 48
000
ASUS45 KBOI 201710
RWRID
WEATHER ROUNDUP FOR IDAHO
NATIONAL WEATHER SERVICE BOISE ID
1100 AM MDT SAT SEP 20 2014

NOTE: "FAIR" INDICATES FEW OR NO CLOUDS BELOW 12000 FEET
WITH NO SIGNIFICANT WEATHER AND/OR OBSTRUCTIONS TO VISIBILITY

IDZ012-014-201800-
SOUTHWEST IDAHO


CITY           SKY/WX    TMP DP  RH WIND       PRES   REMARKS
BOISE          SUNNY     73  45  36 S9        30.15R
CALDWELL       SUNNY     66  45  45 CALM      30.17R
MOUNTAIN HOME  SUNNY     68  45  44 E10       30.17R
$$

IDZ016-017-201800-
SOUTHCENTRAL IDAHO


CITY           SKY/WX    TMP DP  RH WIND       PRES   REMARKS
BURLEY         SUNNY     67  47  48 E5        30.22S
JEROME         SUNNY     68  46  45 E6        30.23R
TWIN FALLS     SUNNY     70  46  42 N6        30.22S
$$

IDZ019>023-201800-
SOUTHEAST IDAHO


CITY           SKY/WX    TMP DP  RH WIND       PRES   REMARKS
IDAHO FALLS    SUNNY     69  44  40 NE6       30.26S
POCATELLO      SUNNY     66  46  48 CALM      30.26R
REXBURG        SUNNY     62  45  53 CALM      30.28R
$$

IDZ006-010-011-018-031-032-201800-
CENTRAL IDAHO MOUNTAINS


CITY           SKY/WX    TMP DP  RH WIND       PRES   REMARKS
MCCALL         SUNNY     62  44  51 S6        30.22R
HAILEY         SUNNY     66  43  42 N6        30.30R
STANLEY          N/A     54  38  54 N5        30.34S
SALMON         SUNNY     59  43  55 CALM      30.26F
CHALLIS        SUNNY     61  41  47 CALM      30.29S
$$

IDZ002-004-006-007-026-201800-
NORTHERN IDAHO


CITY           SKY/WX    TMP DP  RH WIND       PRES   REMARKS
LEWISTON       SUNNY     67  49  52 NE3       30.16F
LOWELL           N/A     62  49  62 CALM      30.20F
COEUR D`ALENE  SUNNY     66  52  59 NE6       30.20F
MULLAN PASS    MOSUNNY   59  42  53 VRB3      30.33R
$$



USA.gov is the U.S. government's official web portal to all federal, state and local government web resources and services.